When you browse on this site, cookies collect data to enhance your experience and personalize the content and advertising you see.
Visit our Privacy Policy to learn more. By continuing to use the site, you agree to this use of cookies and data.
EN

Hourly Weather Rozany

Today, 4 August, Tuesday

Time Temperature Precipitation Wind Pressure Humidity
00:00 +17°C° 0.1 mm 2 mps 743 mmHg 93%
01:00 +18°C° 0 mm 1 mps 743 mmHg 93%
02:00 +18°C° 0 mm 1 mps 743 mmHg 93%
03:00 +18°C° 0 mm 1 mps 742 mmHg 93%
04:00 +18°C° 0 mm 1 mps 742 mmHg 92%
05:00 +18°C° 0.2 mm 1 mps 742 mmHg 93%
06:00 +17°C° 0.2 mm 2 mps 742 mmHg 94%
07:00 +17°C° 0 mm 3 mps 743 mmHg 94%
08:00 +17°C° 3 mm 3 mps 742 mmHg 95%
09:00 +17°C° 3 mm 4 mps 742 mmHg 95%
10:00 +17°C° 3 mm 4 mps 742 mmHg 96%
11:00 +17°C° 5.4 mm 4 mps 742 mmHg 96%
12:00 +17°C° 5.4 mm 4 mps 743 mmHg 96%
13:00 +16°C° 5.4 mm 5 mps 743 mmHg 97%
14:00 +16°C° 0.2 mm 5 mps 743 mmHg 96%
15:00 +16°C° 0.2 mm 5 mps 744 mmHg 95%
16:00 +17°C° 0.2 mm 5 mps 744 mmHg 94%
17:00 +16°C° 0 mm 5 mps 745 mmHg 93%
18:00 +17°C° 0 mm 4 mps 745 mmHg 93%
19:00 +15°C° 0 mm 4 mps 746 mmHg 92%
20:00 +15°C° 0 mm 4 mps 747 mmHg 93%
21:00 +15°C° 0 mm 4 mps 747 mmHg 93%
22:00 +14°C° 0 mm 3 mps 748 mmHg 93%
23:00 +14°C° 0 mm 3 mps 748 mmHg 94%

Tomorrow, 5 August, Wednesday

Time Temperature Precipitation Wind Pressure Humidity
00:00 +13°C° 0 mm 3 mps 749 mmHg 94%
01:00 +13°C° 0 mm 3 mps 749 mmHg 94%
02:00 +14°C° 0 mm 2 mps 749 mmHg 94%
03:00 +13°C° 0 mm 2 mps 750 mmHg 93%
04:00 +13°C° 0 mm 2 mps 750 mmHg 93%
05:00 +13°C° 0 mm 2 mps 750 mmHg 89%
06:00 +14°C° 0 mm 2 mps 751 mmHg 84%
07:00 +14°C° 0 mm 3 mps 751 mmHg 80%
08:00 +16°C° 0 mm 3 mps 751 mmHg 72%
09:00 +18°C° 0 mm 3 mps 751 mmHg 65%
10:00 +20°C° 0 mm 3 mps 752 mmHg 58%
11:00 +21°C° 0 mm 3 mps 752 mmHg 54%
12:00 +22°C° 0 mm 3 mps 752 mmHg 50%
13:00 +22°C° 0 mm 3 mps 752 mmHg 47%
14:00 +24°C° 0 mm 3 mps 752 mmHg 48%
15:00 +24°C° 0 mm 3 mps 752 mmHg 48%
16:00 +24°C° 0 mm 3 mps 752 mmHg 49%
17:00 +22°C° 0 mm 3 mps 752 mmHg 55%
18:00 +20°C° 0 mm 2 mps 752 mmHg 60%
19:00 +19°C° 0 mm 2 mps 752 mmHg 66%
20:00 +18°C° 0 mm 2 mps 752 mmHg 67%
21:00 +17°C° 0 mm 2 mps 753 mmHg 68%
22:00 +17°C° 0 mm 2 mps 753 mmHg 69%
23:00 +16°C° 0 mm 2 mps 753 mmHg 72%

Day after tomorrow, 6 August, Thursday

Time Temperature Precipitation Wind Pressure Humidity
00:00 +16°C° 0 mm 2 mps 753 mmHg 74%
01:00 +15°C° 0 mm 2 mps 753 mmHg 77%
02:00 +15°C° 0 mm 2 mps 753 mmHg 80%
03:00 +15°C° 0 mm 2 mps 753 mmHg 82%
04:00 +14°C° 0 mm 3 mps 753 mmHg 84%
05:00 +16°C° 0 mm 3 mps 753 mmHg 83%
06:00 +17°C° 0 mm 3 mps 754 mmHg 81%
07:00 +18°C° 0 mm 4 mps 754 mmHg 80%
08:00 +20°C° 0 mm 4 mps 754 mmHg 75%
09:00 +22°C° 0 mm 4 mps 754 mmHg 70%
10:00 +23°C° 0 mm 4 mps 754 mmHg 66%
11:00 +25°C° 0 mm 4 mps 754 mmHg 64%
12:00 +26°C° 0 mm 4 mps 754 mmHg 62%
13:00 +27°C° 0 mm 4 mps 754 mmHg 60%
14:00 +27°C° 0 mm 5 mps 754 mmHg 61%
15:00 +27°C° 0 mm 5 mps 754 mmHg 62%
16:00 +27°C° 0 mm 5 mps 754 mmHg 62%
17:00 +26°C° 0 mm 4 mps 754 mmHg 68%
18:00 +25°C° 0 mm 4 mps 754 mmHg 74%
19:00 +22°C° 0 mm 3 mps 754 mmHg 80%
20:00 +22°C° 0 mm 4 mps 754 mmHg 82%
21:00 +21°C° 0 mm 4 mps 754 mmHg 83%
22:00 +20°C° 0 mm 4 mps 755 mmHg 85%
23:00 +20°C° 0 mm 3 mps 755 mmHg 87%

7 August, Friday

Time Temperature Precipitation Wind Pressure Humidity
00:00 +19°C° 0 mm 3 mps 755 mmHg 89%
01:00 +19°C° 0 mm 3 mps 755 mmHg 91%
02:00 +19°C° 0 mm 3 mps 755 mmHg 92%
03:00 +18°C° 0 mm 3 mps 755 mmHg 93%
04:00 +18°C° 0 mm 3 mps 755 mmHg 94%
05:00 +19°C° 0 mm 3 mps 755 mmHg 91%
06:00 +20°C° 0 mm 3 mps 755 mmHg 87%
07:00 +22°C° 0 mm 3 mps 755 mmHg 83%
08:00 +24°C° 0.1 mm 3 mps 755 mmHg 77%
09:00 +26°C° 0.1 mm 3 mps 755 mmHg 70%
10:00 +28°C° 0.1 mm 4 mps 756 mmHg 64%
11:00 +28°C° 0.4 mm 3 mps 755 mmHg 61%
12:00 +29°C° 0.4 mm 3 mps 755 mmHg 58%
13:00 +30°C° 0.4 mm 3 mps 755 mmHg 55%
14:00 +29°C° 0.5 mm 3 mps 754 mmHg 56%
15:00 +29°C° 0.5 mm 3 mps 754 mmHg 57%
16:00 +29°C° 0.5 mm 3 mps 754 mmHg 59%
17:00 +28°C° 0.4 mm 3 mps 754 mmHg 65%
18:00 +26°C° 0.4 mm 3 mps 754 mmHg 72%
19:00 +25°C° 0.4 mm 3 mps 754 mmHg 79%
20:00 +24°C° 0 mm 3 mps 754 mmHg 81%
21:00 +22°C° 0 mm 3 mps 754 mmHg 84%
22:00 +21°C° 0 mm 3 mps 754 mmHg 86%
23:00 +21°C° 0 mm 3 mps 754 mmHg 87%

8 August, Saturday

Time Temperature Precipitation Wind Pressure Humidity
00:00 +20°C° 0 mm 3 mps 754 mmHg 87%
01:00 +20°C° 0 mm 3 mps 754 mmHg 88%
02:00 +19°C° 0 mm 2 mps 754 mmHg 88%
03:00 +19°C° 0 mm 2 mps 754 mmHg 88%
04:00 +19°C° 0 mm 2 mps 754 mmHg 88%
05:00 +20°C° 0 mm 2 mps 754 mmHg 84%
06:00 +21°C° 0 mm 2 mps 754 mmHg 81%
07:00 +22°C° 0 mm 3 mps 754 mmHg 78%
08:00 +24°C° 0 mm 3 mps 754 mmHg 73%
09:00 +25°C° 0 mm 3 mps 754 mmHg 67%
10:00 +27°C° 0 mm 3 mps 753 mmHg 62%
11:00 +28°C° 0 mm 3 mps 753 mmHg 59%
12:00 +28°C° 0 mm 3 mps 753 mmHg 56%
13:00 +29°C° 0 mm 3 mps 752 mmHg 54%
14:00 +29°C° 0 mm 3 mps 752 mmHg 54%
15:00 +29°C° 0 mm 2 mps 752 mmHg 54%
16:00 +29°C° 0 mm 2 mps 752 mmHg 54%
17:00 +28°C° 0 mm 2 mps 751 mmHg 59%
18:00 +26°C° 0 mm 2 mps 751 mmHg 65%
19:00 +25°C° 0 mm 2 mps 751 mmHg 70%
20:00 +24°C° 0.1 mm 2 mps 751 mmHg 72%
21:00 +23°C° 0.1 mm 2 mps 751 mmHg 74%
22:00 +21°C° 0.1 mm 2 mps 751 mmHg 76%
23:00 +21°C° 0.1 mm 2 mps 751 mmHg 77%

9 August, Sunday

Time Temperature Precipitation Wind Pressure Humidity
00:00 +22°C° 0.1 mm 1 mps 751 mmHg 78%
01:00 +21°C° 0.1 mm 1 mps 751 mmHg 78%
02:00 +21°C° 0 mm 1 mps 751 mmHg 80%
03:00 +20°C° 0 mm 1 mps 751 mmHg 81%
04:00 +20°C° 0 mm 1 mps 750 mmHg 82%
05:00 +21°C° 0 mm 1 mps 750 mmHg 78%
06:00 +22°C° 0 mm 1 mps 751 mmHg 75%
07:00 +24°C° 0 mm 1 mps 751 mmHg 72%
08:00 +25°C° 0.3 mm 1 mps 751 mmHg 67%
09:00 +26°C° 0.3 mm 1 mps 750 mmHg 63%
10:00 +27°C° 0.3 mm 1 mps 750 mmHg 58%
11:00 +28°C° 0.4 mm 2 mps 750 mmHg 56%
12:00 +28°C° 0.4 mm 2 mps 750 mmHg 54%
13:00 +29°C° 0.4 mm 2 mps 749 mmHg 52%
14:00 +29°C° 0.1 mm 2 mps 749 mmHg 52%
15:00 +29°C° 0.1 mm 3 mps 749 mmHg 52%
16:00 +29°C° 0.1 mm 3 mps 749 mmHg 52%
17:00 +27°C° 0 mm 3 mps 749 mmHg 57%
18:00 +26°C° 0 mm 2 mps 749 mmHg 62%
19:00 +24°C° 0 mm 2 mps 749 mmHg 67%
20:00 +24°C° 0 mm 2 mps 749 mmHg 68%
21:00 +23°C° 0 mm 2 mps 749 mmHg 69%
22:00 +21°C° 0 mm 2 mps 749 mmHg 71%
23:00 +21°C° 0 mm 2 mps 749 mmHg 73%
Show more